Weather History for K3A1 - March, 2013

Change the Weather History Date:

Tuesday, March 19, 2013

  Actual Average (KHSV) Record (KHSV)
Temperature  
Mean Temperature 46 °F 54 °F  
Max Temperature 58 °F 66 °F 84 °F (1982)
Min Temperature 35 °F 43 °F 20 °F (1923)
Degree Days  
Heating Degree Days 18 11  
Month to date heating degree days 254  
Since 1 July heating degree days 2706  
Cooling Degree Days 0 0  
Month to date cooling degree days 0  
Year to date cooling degree days 1  
Moisture  
Dew Point 34 °F    
Average Humidity 60    
Maximum Humidity 97    
Minimum Humidity 35    
Precipitation  
Precipitation 0.00 in 0.18 in 3.59 in (2000)
Month to date precipitation 3.17  
Year to date precipitation 12.90  
Snow  
Snow 0.00 in - - ()
Month to date snowfall  
Since 1 July snowfall  
Snow Depth -    
Sea Level Pressure  
Sea Level Pressure 30.10 in    
Wind  
Wind Speed 7 mph (North)    
Max Wind Speed 14 mph    
Max Gust Speed 22 mph    
Visibility 10 miles    
Events      
T = Trace of Precipitation, MM = Missing Value Source: NWS Daily Summary

Daily Weather History Graph

Daily Weather History Graph

Search for Another Location

Airport or City:

Trip Planner

Search our weather history database for the weather conditions in past years. The results will help you decide how hot, cold, wet, or windy it might be!

Date:

Astronomy

Mar. 19, 2013 Rise Set
Actual Time 6:52 AM CDT 6:58 PM CDT
Civil Twilight 6:27 AM CDT 7:23 PM CDT
Nautical Twilight 5:57 AM CDT 7:52 PM CDT
Astronomical Twilight 5:28 AM CDT 8:22 PM CDT
Moon 11:56 AM CDT (3/19) 1:30 AM CDT (3/19)
Length of Visible Light 12h 56m
Length of Day
12h 06m
Waxing Crescent, 50% of the Moon is Illuminated
Mar 19
Waxing Crescent
Mar 19
First Quarter
Mar 27
Full
Apr 2
Last Quarter
Apr 10
New

Hourly Weather History & Observations

Time (CDT) Temp. Windchill Dew Point Humidity Pressure Visibility Wind Dir Wind Speed Gust Speed Precip Events Conditions
12:15 AM 50.2 °F - 45.7 °F 85% 29.97 in 10.0 mi NNW 13.8 mph 19.6 mph N/A   Overcast
12:35 AM 49.5 °F - 45.3 °F 86% 29.98 in 10.0 mi North 5.8 mph 17.3 mph N/A   Overcast
12:55 AM 48.2 °F - 44.1 °F 86% 29.98 in 10.0 mi North 6.9 mph 16.1 mph N/A   Scattered Clouds
1:15 AM 47.3 °F - 43.2 °F 86% 30.00 in 10.0 mi North 6.9 mph - N/A   Scattered Clouds
1:35 AM 46.4 °F 42.9 °F 42.6 °F 87% 30.01 in 10.0 mi NNW 6.9 mph - N/A   Clear
1:55 AM 45.9 °F 41.7 °F 42.4 °F 88% 30.02 in 10.0 mi North 8.1 mph - N/A   Clear
2:15 AM 45.7 °F 41.5 °F 42.6 °F 89% 30.03 in 10.0 mi North 8.1 mph - N/A   Mostly Cloudy
2:35 AM 45.1 °F 40.3 °F 42.3 °F 90% 30.04 in 10.0 mi NNW 9.2 mph - N/A   Scattered Clouds
2:55 AM 44.8 °F 40.4 °F 41.7 °F 89% 30.05 in 10.0 mi North 8.1 mph 16.1 mph N/A   Scattered Clouds
3:15 AM 44.2 °F 39.7 °F 41.2 °F 89% 30.05 in 10.0 mi North 8.1 mph - N/A   Clear
3:35 AM 43.7 °F 39.7 °F 40.8 °F 90% 30.06 in 10.0 mi North 6.9 mph - N/A   Clear
3:55 AM 43.2 °F 40.5 °F 40.6 °F 91% 30.06 in 10.0 mi North 4.6 mph - N/A   Clear
4:15 AM 42.4 °F 38.1 °F 40.1 °F 91% 30.06 in 10.0 mi North 6.9 mph - N/A   Clear
4:35 AM 42.1 °F 38.4 °F 39.7 °F 91% 30.07 in 10.0 mi North 5.8 mph - N/A   Clear
5:15 AM 41.2 °F 38.2 °F 38.8 °F 91% 30.07 in 10.0 mi North 4.6 mph - N/A   Clear
5:35 AM 40.8 °F 37.8 °F 38.5 °F 91% 30.07 in 10.0 mi NNE 4.6 mph - N/A   Clear
5:55 AM 39.7 °F 36.5 °F 37.8 °F 93% 30.07 in 10.0 mi NNE 4.6 mph - N/A   Clear
6:15 AM 37.8 °F - 36.1 °F 94% 30.07 in 10.0 mi Calm Calm - N/A   Clear
6:35 AM 37.0 °F - 36.0 °F 96% 30.07 in 10.0 mi Calm Calm - N/A   Clear
6:55 AM 36.5 °F - 35.4 °F 96% 30.07 in 7.0 mi Calm Calm - N/A   Clear
7:15 AM 35.8 °F - 34.9 °F 97% 30.07 in 7.0 mi Calm Calm - N/A   Clear
7:35 AM 36.0 °F - 35.2 °F 97% 30.07 in 4.0 mi Calm Calm - N/A   Clear
7:55 AM 38.7 °F - 37.2 °F 95% 30.09 in 7.0 mi Calm Calm - N/A   Clear
8:15 AM 41.9 °F - 37.9 °F 86% 30.09 in 10.0 mi Calm Calm - N/A   Clear
8:35 AM 44.1 °F 42.5 °F 37.2 °F 77% 30.10 in 10.0 mi ENE 3.5 mph - N/A   Clear
8:55 AM 45.9 °F 42.9 °F 37.0 °F 71% 30.10 in 10.0 mi ENE 5.8 mph - N/A   Clear
9:15 AM 47.5 °F - 35.4 °F 63% 30.11 in 10.0 mi NNE 6.9 mph - N/A   Clear
9:35 AM 49.1 °F - 32.0 °F 52% 30.11 in 10.0 mi NNE 8.1 mph - N/A   Clear
9:55 AM 50.0 °F - 32.0 °F 50% 30.13 in 10.0 mi North 11.5 mph 19.6 mph N/A   Clear
10:15 AM 50.5 °F - 31.3 °F 48% 30.13 in 10.0 mi NNE 10.4 mph 18.4 mph N/A   Clear
10:35 AM 51.3 °F - 31.6 °F 47% 30.13 in 10.0 mi NNE 9.2 mph 17.3 mph N/A   Clear
10:55 AM 52.0 °F - 32.0 °F 47% 30.13 in 10.0 mi NE 10.4 mph - N/A   Clear
11:15 AM 52.7 °F - 32.5 °F 46% 30.14 in 10.0 mi NNE 8.1 mph - N/A   Clear
11:35 AM 53.8 °F - 33.1 °F 45% 30.15 in 10.0 mi NW 10.4 mph - N/A   Clear
11:55 AM 54.9 °F - 32.0 °F 42% 30.15 in 10.0 mi North 9.2 mph - N/A   Clear
12:15 PM 55.2 °F - 31.5 °F 40% 30.15 in 10.0 mi NNE 9.2 mph - N/A   Clear
12:35 PM 56.5 °F - 30.0 °F 36% 30.16 in 10.0 mi North 8.1 mph 16.1 mph N/A   Clear
12:55 PM 57.2 °F - 30.2 °F 36% 30.17 in 10.0 mi NW 8.1 mph 16.1 mph N/A   Clear
1:15 PM 56.1 °F - 29.3 °F 36% 30.17 in 10.0 mi NNW 9.2 mph - N/A   Clear
1:35 PM 55.9 °F - 30.9 °F 39% 30.17 in 10.0 mi North 10.4 mph - N/A   Clear
1:55 PM 57.0 °F - 31.6 °F 38% 30.16 in 10.0 mi North 11.5 mph 21.9 mph N/A   Clear
2:15 PM 57.4 °F - 31.3 °F 37% 30.15 in 10.0 mi North 6.9 mph 18.4 mph N/A   Clear
2:35 PM 57.0 °F - 31.6 °F 38% 30.15 in 10.0 mi North 10.4 mph - N/A   Clear
2:55 PM 57.6 °F - 32.0 °F 38% 30.14 in 10.0 mi NNW 9.2 mph 17.3 mph N/A   Clear
3:15 PM 57.9 °F - 33.1 °F 39% 30.14 in 10.0 mi NNW 5.8 mph - N/A   Clear
3:35 PM 58.3 °F - 33.6 °F 39% 30.13 in 10.0 mi NNW 5.8 mph - N/A   Clear
3:55 PM 58.6 °F - 32.9 °F 38% 30.13 in 10.0 mi NNW 4.6 mph - N/A   Clear
4:15 PM 58.6 °F - 32.9 °F 38% 30.13 in 10.0 mi NW 8.1 mph - N/A   Clear
4:35 PM 58.5 °F - 32.0 °F 37% 30.12 in 10.0 mi NNW 4.6 mph - N/A   Clear
4:55 PM 58.6 °F - 31.3 °F 36% 30.11 in 10.0 mi North 8.1 mph - N/A   Clear
5:15 PM 58.3 °F - 30.9 °F 35% 30.11 in 10.0 mi NNW 5.8 mph - N/A   Clear
5:35 PM 58.1 °F - 32.0 °F 37% 30.11 in 10.0 mi North 5.8 mph - N/A   Clear
5:55 PM 57.6 °F - 31.1 °F 37% 30.11 in 10.0 mi North 9.2 mph - N/A   Clear
6:15 PM 56.3 °F - 29.7 °F 36% 30.11 in 10.0 mi North 8.1 mph 16.1 mph N/A   Clear
6:35 PM 55.2 °F - 28.8 °F 36% 30.10 in 10.0 mi North 4.6 mph - N/A   Clear
6:55 PM 52.9 °F - 29.5 °F 41% 30.09 in 10.0 mi NNE 8.1 mph - N/A   Clear
7:15 PM 51.3 °F - 31.8 °F 47% 30.09 in 10.0 mi NNE 6.9 mph - N/A   Clear
7:35 PM 50.0 °F - 31.5 °F 49% 30.09 in 10.0 mi NNE 4.6 mph - N/A   Clear
7:55 PM 49.6 °F - 29.8 °F 47% 30.10 in 10.0 mi NNE 5.8 mph - N/A   Clear
8:15 PM 48.7 °F - 29.8 °F 48% 30.11 in 10.0 mi North 4.6 mph - N/A   Clear
8:35 PM 48.0 °F - 28.6 °F 47% 30.11 in 10.0 mi NNE 4.6 mph - N/A   Clear
8:55 PM 48.6 °F - 27.0 °F 43% 30.12 in 10.0 mi North 4.6 mph - N/A   Clear
9:15 PM 48.7 °F - 25.7 °F 41% 30.13 in 10.0 mi North 5.8 mph - N/A   Clear
9:35 PM 48.0 °F - 25.3 °F 41% 30.13 in 10.0 mi North 4.6 mph - N/A   Clear
9:55 PM 47.3 °F - 24.4 °F 41% 30.14 in 10.0 mi North 3.5 mph - N/A   Clear
10:15 PM 46.2 °F - 25.0 °F 43% 30.14 in 10.0 mi Calm Calm - N/A   Clear
10:35 PM 44.1 °F - 27.3 °F 52% 30.14 in 10.0 mi Calm Calm - N/A   Clear
10:55 PM 42.6 °F - 29.1 °F 59% 30.14 in 10.0 mi Calm Calm - N/A   Clear
11:15 PM 42.3 °F 40.5 °F 27.3 °F 56% 30.14 in 10.0 mi NNW 3.5 mph - N/A   Clear
11:35 PM 43.7 °F - 24.6 °F 47% 30.15 in 10.0 mi Calm Calm - N/A   Clear
11:55 PM 42.8 °F 41.1 °F 25.2 °F 50% 30.15 in 10.0 mi North 3.5 mph - N/A   Clear